Year,Month,Day,Hour,Minute,Value (Times are PST for temperature in C)
2006,11,26,00,00,0.10
2006,11,26,00,01,0.10
2006,11,26,00,02,0.00
2006,11,26,00,03,0.10
2006,11,26,00,04,0.10
2006,11,26,00,05,0.10
2006,11,26,00,06,0.10
2006,11,26,00,07,0.10
2006,11,26,00,08,0.10
2006,11,26,00,09,0.10
2006,11,26,00,10,0.10
2006,11,26,00,11,0.10
2006,11,26,00,12,0.10
2006,11,26,00,13,0.10
2006,11,26,00,14,0.10
2006,11,26,00,15,0.10
2006,11,26,00,16,0.10
2006,11,26,00,17,0.10
2006,11,26,00,18,0.10
2006,11,26,00,19,0.10
2006,11,26,00,20,0.10
2006,11,26,00,21,0.10
2006,11,26,00,22,0.10
2006,11,26,00,23,0.10
2006,11,26,00,24,0.10
2006,11,26,00,25,0.10
2006,11,26,00,26,0.10
2006,11,26,00,27,0.10
2006,11,26,00,28,0.10
2006,11,26,00,29,0.10
2006,11,26,00,30,0.10
2006,11,26,00,31,0.10
2006,11,26,00,32,0.10
2006,11,26,00,33,0.10
2006,11,26,00,34,0.10
2006,11,26,00,35,0.10
2006,11,26,00,36,0.10
2006,11,26,00,37,0.10
2006,11,26,00,38,0.10
2006,11,26,00,39,0.10
2006,11,26,00,40,0.10
2006,11,26,00,41,0.10
2006,11,26,00,42,0.10
2006,11,26,00,43,0.10
2006,11,26,00,44,0.10
2006,11,26,00,45,0.10
2006,11,26,00,46,0.10
2006,11,26,17,30,-0.20
2006,11,26,17,31,-0.20
2006,11,26,17,32,-0.20
2006,11,26,17,33,-0.30
2006,11,26,17,34,-0.30
2006,11,26,17,35,-0.30
2006,11,26,17,36,-0.30
2006,11,26,17,37,-0.30
2006,11,26,17,38,-0.30
2006,11,26,17,39,-0.30
2006,11,26,17,40,-0.30
2006,11,26,17,41,-0.30
2006,11,26,17,42,-0.30
2006,11,26,17,43,-0.30
2006,11,26,17,44,-0.30
2006,11,26,17,45,-0.30
2006,11,26,17,46,-0.30
2006,11,26,17,47,-0.30
2006,11,26,17,59,-0.30
2006,11,26,18,00,-0.30
2006,11,26,18,01,-0.30
2006,11,26,18,02,-0.30
2006,11,26,18,03,-0.40
2006,11,26,18,04,-0.30
2006,11,26,18,05,-0.40
2006,11,26,18,06,-0.40
2006,11,26,18,07,-0.40
2006,11,26,18,08,-0.40
2006,11,26,18,09,-0.40
2006,11,26,18,10,-0.40
2006,11,26,18,11,-0.40
2006,11,26,18,12,-0.40
2006,11,26,18,13,-0.40
2006,11,26,18,14,-0.40
2006,11,26,18,15,-0.40
2006,11,26,18,16,-0.40
2006,11,26,18,17,-0.40
2006,11,26,18,18,-0.40
2006,11,26,18,19,-0.40
2006,11,26,18,20,-0.40
2006,11,26,18,21,-0.40
2006,11,26,18,22,-0.40
2006,11,26,18,23,-0.40
2006,11,26,18,24,-0.40
2006,11,26,18,27,-0.40
2006,11,26,18,28,-0.40
2006,11,26,18,37,-0.40
2006,11,26,18,38,-0.40
2006,11,26,18,39,-0.40
2006,11,26,18,40,-0.40
2006,11,26,18,41,-0.40
2006,11,26,18,42,-0.40
2006,11,26,18,43,-0.40
2006,11,26,18,44,-0.40
2006,11,26,18,45,-0.40
2006,11,26,18,46,-0.40
2006,11,26,18,47,-0.40
2006,11,26,18,48,-0.40
2006,11,26,18,49,-0.40
2006,11,26,18,50,-0.40
2006,11,26,18,51,-0.40
2006,11,26,18,52,-0.40
2006,11,26,18,53,-0.40
2006,11,26,18,54,-0.40
2006,11,26,18,55,-0.40
2006,11,26,18,56,-0.40
2006,11,26,18,57,-0.40
2006,11,26,18,58,-0.40
2006,11,26,18,59,-0.40
2006,11,26,19,00,-0.40
2006,11,26,19,01,-0.30
2006,11,26,19,02,-0.40
2006,11,26,19,03,-0.30
2006,11,26,19,04,-0.30
2006,11,26,19,05,-0.30
2006,11,26,19,09,-0.30
2006,11,26,19,10,-0.30
2006,11,26,19,11,-0.30
2006,11,26,19,12,-0.30
2006,11,26,19,13,-0.40
2006,11,26,19,14,-0.40
2006,11,26,19,15,-0.40
2006,11,26,19,16,-0.40
2006,11,26,19,17,-0.40
2006,11,26,19,18,-0.40
2006,11,26,19,19,-0.40
2006,11,26,19,20,-0.40
2006,11,26,19,21,-0.40
2006,11,26,19,22,-0.40
2006,11,26,19,23,-0.40
2006,11,26,19,24,-0.40
2006,11,26,19,25,-0.40
2006,11,26,19,26,-0.40
2006,11,26,19,27,-0.40
2006,11,26,19,28,-0.40
2006,11,26,19,29,-0.40
2006,11,26,19,30,-0.40
2006,11,26,19,31,-0.40
2006,11,26,19,32,-0.40
2006,11,26,19,33,-0.40
2006,11,26,19,34,-0.40
2006,11,26,19,35,-0.40
2006,11,26,19,36,-0.40
2006,11,26,19,37,-0.40
2006,11,26,19,38,-0.40
2006,11,26,19,39,-0.40
2006,11,26,19,40,-0.40
2006,11,26,19,41,-0.40
2006,11,26,19,42,-0.40
2006,11,26,19,43,-0.40
2006,11,26,19,44,-0.40
2006,11,26,19,48,-0.40
2006,11,26,19,49,-0.40
2006,11,26,19,50,-0.40
2006,11,26,19,51,-0.40
2006,11,26,19,52,-0.40
2006,11,26,19,53,-0.40
2006,11,26,19,54,-0.40
2006,11,26,19,55,-0.40
2006,11,26,19,56,-0.40
2006,11,26,19,57,-0.40
2006,11,26,19,58,-0.40
2006,11,26,19,59,-0.40
2006,11,26,20,00,-0.50
2006,11,26,20,01,-0.50
2006,11,26,20,02,-0.50
2006,11,26,20,03,-0.50
2006,11,26,20,04,-0.50
2006,11,26,20,05,-0.50
2006,11,26,20,06,-0.50
2006,11,26,20,07,-0.50
2006,11,26,20,08,-0.50
2006,11,26,20,09,-0.50
2006,11,26,20,10,-0.50
2006,11,26,20,11,-0.50
2006,11,26,20,12,-0.50
2006,11,26,20,13,-0.40
2006,11,26,20,14,-0.40
2006,11,26,20,15,-0.40
2006,11,26,20,16,-0.40
2006,11,26,20,17,-0.50
2006,11,26,20,18,-0.50
2006,11,26,20,19,-0.50
2006,11,26,20,20,-0.50
2006,11,26,20,21,-0.50
2006,11,26,20,22,-0.50
2006,11,26,20,23,-0.50
2006,11,26,20,24,-0.50
2006,11,26,20,25,-0.50
2006,11,26,20,26,-0.60
2006,11,26,20,27,-0.60
2006,11,26,20,28,-0.60
2006,11,26,20,29,-0.60
2006,11,26,20,30,-0.60
2006,11,26,20,31,-0.60
2006,11,26,20,32,-0.60
2006,11,26,20,33,-0.60
2006,11,26,20,34,-0.60
2006,11,26,20,35,-0.70
2006,11,26,20,36,-0.70
2006,11,26,20,37,-0.70
2006,11,26,20,38,-0.70
2006,11,26,20,39,-0.70
2006,11,26,20,40,-0.70
2006,11,26,20,41,-0.70
2006,11,26,20,42,-0.70
2006,11,26,20,43,-0.70
2006,11,26,20,44,-0.70
2006,11,26,20,45,-0.70
2006,11,26,20,46,-0.70
2006,11,26,20,47,-0.70
2006,11,26,20,48,-0.70
2006,11,26,20,49,-0.70
2006,11,26,20,50,-0.70
2006,11,26,20,51,-0.70
2006,11,26,20,52,-0.70
2006,11,26,20,53,-0.70
2006,11,26,20,54,-0.70
2006,11,26,20,55,-0.70
2006,11,26,20,56,-0.70
2006,11,26,20,57,-0.70
2006,11,26,20,58,-0.70
2006,11,26,20,59,-0.70
2006,11,26,21,00,-0.70
2006,11,26,21,01,-0.70
2006,11,26,21,02,-0.70
2006,11,26,21,03,-0.70
2006,11,26,21,04,-0.70
2006,11,26,21,05,-0.70
2006,11,26,21,06,-0.70
2006,11,26,21,07,-0.70
2006,11,26,21,08,-0.70
2006,11,26,21,09,-0.70
2006,11,26,21,10,-0.70
2006,11,26,21,11,-0.70
2006,11,26,21,12,-0.70
2006,11,26,21,13,-0.70
2006,11,26,21,14,-0.70
2006,11,26,21,15,-0.70
2006,11,26,21,16,-0.70
2006,11,26,21,17,-0.70
2006,11,26,21,18,-0.70
2006,11,26,21,19,-0.70
2006,11,26,21,20,-0.70
2006,11,26,21,21,-0.70
2006,11,26,21,22,-0.70
2006,11,26,21,23,-0.70
2006,11,26,21,24,-0.70
2006,11,26,21,25,-0.70
2006,11,26,21,26,-0.70
2006,11,26,21,27,-0.70
2006,11,26,21,28,-0.70
2006,11,26,21,29,-0.70
2006,11,26,21,30,-0.70
2006,11,26,21,31,-0.80
2006,11,26,21,32,-0.80
2006,11,26,21,33,-0.80
2006,11,26,21,34,-0.80
2006,11,26,21,35,-0.80
2006,11,26,21,36,-0.80
2006,11,26,21,37,-0.80
2006,11,26,21,38,-0.80
2006,11,26,21,39,-0.80
2006,11,26,21,40,-0.80
2006,11,26,21,41,-0.80
2006,11,26,21,42,-0.80
2006,11,26,21,43,-0.80
2006,11,26,21,44,-0.80
2006,11,26,21,45,-0.90
2006,11,26,21,46,-0.90
2006,11,26,21,47,-0.90
2006,11,26,21,48,-0.90
2006,11,26,21,49,-0.90
2006,11,26,21,50,-0.90
2006,11,26,21,51,-0.90
2006,11,26,21,52,-0.90
2006,11,26,21,53,-0.90
2006,11,26,21,54,-0.90
2006,11,26,21,55,-0.90
2006,11,26,21,56,-0.90
2006,11,26,21,57,-0.90
2006,11,26,21,58,-0.90
2006,11,26,21,59,-0.90
2006,11,26,22,00,-0.90
2006,11,26,22,01,-0.90
2006,11,26,22,02,-1.00
2006,11,26,22,03,-1.00
2006,11,26,22,04,-1.00
2006,11,26,22,05,-1.00
2006,11,26,22,06,-1.00
2006,11,26,22,07,-1.00
2006,11,26,22,08,-1.00
2006,11,26,22,09,-1.10
2006,11,26,22,10,-1.10
2006,11,26,22,11,-1.10
2006,11,26,22,12,-1.10
2006,11,26,22,13,-1.10
2006,11,26,22,14,-1.10
2006,11,26,22,15,-1.10
2006,11,26,22,16,-1.10
2006,11,26,22,17,-1.10
2006,11,26,22,18,-1.10
2006,11,26,22,19,-1.10
2006,11,26,22,20,-1.10
2006,11,26,22,21,-1.10
2006,11,26,22,22,-1.10
2006,11,26,22,23,-1.10
2006,11,26,22,24,-1.10
2006,11,26,22,25,-1.10
2006,11,26,22,26,-1.10
2006,11,26,22,27,-1.10
2006,11,26,22,28,-1.10
2006,11,26,22,29,-1.10
2006,11,26,22,30,-1.10
2006,11,26,22,31,-1.10
2006,11,26,22,32,-1.10
2006,11,26,22,33,-1.10
2006,11,26,22,34,-1.10
2006,11,26,22,35,-1.10
2006,11,26,22,36,-1.10
2006,11,26,22,37,-1.10
2006,11,26,22,38,-1.10
2006,11,26,22,39,-1.10
2006,11,26,22,40,-1.10
2006,11,26,22,41,-1.10
2006,11,26,22,42,-1.20
2006,11,26,22,43,-1.20
2006,11,26,22,44,-1.20
2006,11,26,22,45,-1.20
2006,11,26,22,46,-1.20
2006,11,26,22,47,-1.20
2006,11,26,22,48,-1.20
2006,11,26,22,49,-1.30
2006,11,26,22,50,-1.30
2006,11,26,22,51,-1.40
2006,11,26,22,52,-1.40
2006,11,26,22,53,-1.40
2006,11,26,22,54,-1.40
2006,11,26,22,55,-1.40
2006,11,26,22,56,-1.40
2006,11,26,22,57,-1.50
2006,11,26,22,58,-1.50
2006,11,26,22,59,-1.50
2006,11,26,23,00,-1.50
2006,11,26,23,01,-1.50
2006,11,26,23,02,-1.60
2006,11,26,23,03,-1.60
2006,11,26,23,04,-1.60
2006,11,26,23,05,-1.60
2006,11,26,23,06,-1.70
2006,11,26,23,07,-1.70
2006,11,26,23,08,-1.70
2006,11,26,23,09,-1.70
2006,11,26,23,10,-1.70
2006,11,26,23,11,-1.70
2006,11,26,23,12,-1.80
2006,11,26,23,13,-1.80
2006,11,26,23,14,-1.80
2006,11,26,23,15,-1.80
2006,11,26,23,16,-1.90
2006,11,26,23,17,-1.90
2006,11,26,23,18,-1.90
2006,11,26,23,19,-1.90
2006,11,26,23,20,-1.90
2006,11,26,23,21,-1.90
2006,11,26,23,22,-1.90
2006,11,26,23,23,-1.90
2006,11,26,23,24,-2.00
2006,11,26,23,25,-2.00
2006,11,26,23,26,-2.00
2006,11,26,23,27,-2.00
2006,11,26,23,28,-2.00
2006,11,26,23,29,-2.00
2006,11,26,23,30,-2.10
2006,11,26,23,31,-2.10
2006,11,26,23,32,-2.10
2006,11,26,23,33,-2.10
2006,11,26,23,34,-2.10
2006,11,26,23,35,-2.10
2006,11,26,23,36,-2.20
2006,11,26,23,37,-2.20
2006,11,26,23,38,-2.20
2006,11,26,23,39,-2.20
2006,11,26,23,40,-2.20
2006,11,26,23,41,-2.20
2006,11,26,23,42,-2.30
2006,11,26,23,43,-2.30
2006,11,26,23,44,-2.30
2006,11,26,23,45,-2.30
2006,11,26,23,46,-2.30
2006,11,26,23,47,-2.30
2006,11,26,23,48,-2.30
2006,11,26,23,49,-2.40
2006,11,26,23,50,-2.40
2006,11,26,23,51,-2.40
2006,11,26,23,52,-2.40
2006,11,26,23,53,-2.40
2006,11,26,23,54,-2.40
2006,11,26,23,55,-2.40
2006,11,26,23,56,-2.40
2006,11,26,23,57,-2.50
2006,11,26,23,58,-2.50
2006,11,26,23,59,-2.50
